CXK69 PHOG-KBUR

Flight info

Callsign CXK69
Flight time N/A
Altitude 35000
Route CLUTS R465 CIVIT R585 AUDIA SNAXX KWANG V27 HENER FIM FERN7
Aircraft A319/M-SDE3FGHIRWY/LB1

Departure

Time 2026-05-04 03:05
Airport Kahului International Airport (PHOG)

Arrival

Time N/A
Airport Hollywood Burbank/Bob Hope Airport (KBUR)
Time Latitude Longitude Altitude Speed Heading
2026-05-04 02:46 20.89871 -156.42730 45 ft 0 kts 34°
2026-05-04 03:02 20.89890 -156.42740 45 ft 6 kts 299°
2026-05-04 03:02 20.89864 -156.42781 45 ft 10 kts 211°
2026-05-04 03:03 20.89797 -156.42830 45 ft 14 kts 216°
2026-05-04 03:03 20.89709 -156.42898 45 ft 17 kts 216°
2026-05-04 03:03 20.89605 -156.42975 45 ft 19 kts 213°
2026-05-04 03:03 20.89489 -156.43062 44 ft 21 kts 216°
2026-05-04 03:04 20.89414 -156.43173 46 ft 17 kts 258°
2026-05-04 03:04 20.89431 -156.43251 47 ft 9 kts
2026-05-04 03:04 20.89451 -156.43237 45 ft 0 kts 37°
2026-05-04 03:04 20.89480 -156.43213 47 ft 30 kts 37°
2026-05-04 03:05 20.89882 -156.42913 44 ft 108 kts 35°
2026-05-04 03:05 20.90663 -156.42325 243 ft 149 kts 36°
2026-05-04 03:05 20.91480 -156.41710 1074 ft 142 kts 34°
2026-05-04 03:05 20.92280 -156.41045 1439 ft 153 kts 36°
2026-05-04 03:06 20.93151 -156.40313 1816 ft 165 kts 38°
2026-05-04 03:06 20.94085 -156.39539 2185 ft 174 kts 38°
2026-05-04 03:06 20.95092 -156.38714 2480 ft 190 kts 39°
2026-05-04 03:06 20.96202 -156.37772 2689 ft 218 kts 40°
2026-05-04 03:07 20.97456 -156.36712 3024 ft 242 kts 40°
2026-05-04 03:07 20.98838 -156.35554 3526 ft 259 kts 40°
2026-05-04 03:07 21.00264 -156.34384 4436 ft 260 kts 39°
2026-05-04 03:07 21.01717 -156.33197 5241 ft 265 kts 40°
2026-05-04 03:08 21.03196 -156.31984 6002 ft 271 kts 39°
2026-05-04 03:08 21.04703 -156.30743 6779 ft 274 kts 41°
2026-05-04 03:08 21.06220 -156.29492 7564 ft 277 kts 39°
2026-05-04 03:08 21.07754 -156.28220 8302 ft 281 kts 40°
2026-05-04 03:09 21.09307 -156.26928 9027 ft 285 kts 39°
2026-05-04 03:09 21.10883 -156.25617 9736 ft 288 kts 38°
2026-05-04 03:09 21.12486 -156.24284 10253 ft 299 kts 38°
2026-05-04 03:09 21.14192 -156.22865 10377 ft 322 kts 38°
2026-05-04 03:10 21.16016 -156.21348 10498 ft 342 kts 38°
2026-05-04 03:10 21.17940 -156.19751 10724 ft 356 kts 38°
2026-05-04 03:10 21.19919 -156.18109 11177 ft 362 kts 38°
2026-05-04 03:10 21.21892 -156.16470 11671 ft 366 kts 38°
2026-05-04 03:11 21.23917 -156.14787 12175 ft 370 kts 37°
2026-05-04 03:11 21.25964 -156.13085 12672 ft 374 kts 37°
2026-05-04 03:11 21.28030 -156.11366 13176 ft 378 kts 37°
2026-05-04 03:11 21.30117 -156.09624 13674 ft 382 kts 37°
2026-05-04 03:12 21.32225 -156.07863 14130 ft 386 kts 36°
2026-05-04 03:12 21.34352 -156.06086 14560 ft 389 kts 37°
2026-05-04 03:12 21.36496 -156.04295 15005 ft 392 kts 36°
2026-05-04 03:12 21.38654 -156.02493 15467 ft 395 kts 37°
2026-05-04 03:13 21.40829 -156.00676 15926 ft 397 kts 36°
2026-05-04 03:13 21.43020 -155.98847 16393 ft 400 kts 36°
2026-05-04 03:13 21.45226 -155.97007 16861 ft 403 kts 35°
2026-05-04 03:13 21.47445 -155.95154 17342 ft 405 kts 36°
2026-05-04 03:14 21.49678 -155.93287 17809 ft 408 kts 36°
2026-05-04 03:14 21.51923 -155.91408 18282 ft 411 kts 36°
2026-05-04 03:14 21.54185 -155.89515 18712 ft 414 kts 36°
2026-05-04 03:14 21.56463 -155.87610 19139 ft 416 kts 36°
2026-05-04 03:15 21.58751 -155.85693 19551 ft 419 kts 36°
2026-05-04 03:15 21.61055 -155.83758 19952 ft 422 kts 36°
2026-05-04 03:15 21.63373 -155.81810 20362 ft 424 kts 36°
2026-05-04 03:15 21.65700 -155.79855 20754 ft 426 kts 36°
2026-05-04 03:16 21.68042 -155.77889 21140 ft 428 kts 36°
2026-05-04 03:16 21.70397 -155.75911 21535 ft 430 kts 37°
2026-05-04 03:16 21.72759 -155.73924 21920 ft 432 kts 37°
2026-05-04 03:16 21.75131 -155.71924 22277 ft 434 kts 37°
2026-05-04 03:17 21.77518 -155.69914 22631 ft 437 kts 37°
2026-05-04 03:17 21.79916 -155.67900 22995 ft 439 kts 37°
2026-05-04 03:17 21.82326 -155.65875 23359 ft 440 kts 37°
2026-05-04 03:17 21.84747 -155.63842 23700 ft 443 kts 37°
2026-05-04 03:18 21.87184 -155.61793 23938 ft 446 kts 37°
2026-05-04 03:18 21.89632 -155.59731 24246 ft 448 kts 37°
2026-05-04 03:18 21.92056 -155.57692 24561 ft 449 kts 36°
2026-05-04 03:18 21.94520 -155.55621 24863 ft 450 kts 36°
2026-05-04 03:19 21.96994 -155.53541 25164 ft 452 kts 37°
2026-05-04 03:19 21.99471 -155.51451 25477 ft 453 kts 36°
2026-05-04 03:19 22.01956 -155.49349 25778 ft 455 kts 36°
2026-05-04 03:19 22.04447 -155.47243 26086 ft 456 kts 36°
2026-05-04 03:20 22.06948 -155.45128 26394 ft 458 kts 36°
2026-05-04 03:20 22.09456 -155.43002 26697 ft 459 kts 36°
2026-05-04 03:20 22.11972 -155.40872 26987 ft 461 kts 36°
2026-05-04 03:20 22.14502 -155.38732 27262 ft 463 kts 36°
2026-05-04 03:21 22.17040 -155.36589 27542 ft 464 kts 36°
2026-05-04 03:21 22.19588 -155.34434 27819 ft 466 kts 36°
2026-05-04 03:21 22.22140 -155.32266 28090 ft 468 kts 36°
2026-05-04 03:21 22.24700 -155.30090 28366 ft 469 kts 36°
2026-05-04 03:22 22.27267 -155.27907 28632 ft 471 kts 36°
2026-05-04 03:22 22.29844 -155.25715 28894 ft 472 kts 36°
2026-05-04 03:22 22.32424 -155.23524 29236 ft 472 kts 36°
2026-05-04 03:22 22.34965 -155.21365 29630 ft 470 kts 36°
2026-05-04 03:23 22.37532 -155.19183 30021 ft 469 kts 36°
2026-05-04 03:23 22.40093 -155.17005 30381 ft 468 kts 36°
2026-05-04 03:23 22.42653 -155.14833 30697 ft 467 kts 36°
2026-05-04 03:23 22.45210 -155.12664 31007 ft 467 kts 36°
2026-05-04 03:24 22.47758 -155.10493 31323 ft 466 kts 36°
2026-05-04 03:24 22.50303 -155.08325 31637 ft 466 kts 36°
2026-05-04 03:24 22.52848 -155.06159 31954 ft 465 kts 36°
2026-05-04 03:24 22.55390 -155.03990 32270 ft 465 kts 36°
2026-05-04 03:25 22.57925 -155.01822 32591 ft 464 kts 36°
2026-05-04 03:25 22.60456 -154.99656 32913 ft 464 kts 36°
2026-05-04 03:25 22.62986 -154.97491 33249 ft 464 kts 36°
2026-05-04 03:25 22.65517 -154.95324 33548 ft 464 kts 36°
2026-05-04 03:26 22.68049 -154.93160 33867 ft 463 kts 36°
2026-05-04 03:26 22.70579 -154.90998 34184 ft 463 kts 36°
2026-05-04 03:26 22.73105 -154.88841 34464 ft 463 kts 36°
2026-05-04 03:26 22.75632 -154.86678 34747 ft 462 kts 36°
2026-05-04 03:27 22.78155 -154.84517 35018 ft 462 kts 36°
2026-05-04 03:27 22.83201 -154.80195 35125 ft 462 kts 36°
2026-05-04 03:28 22.88201 -154.75903 35126 ft 462 kts 36°
2026-05-04 03:28 22.93235 -154.71578 35127 ft 462 kts 36°
2026-05-04 03:29 22.98263 -154.67240 35127 ft 462 kts 38°
2026-05-04 03:29 23.02487 -154.61953 35128 ft 467 kts 54°
2026-05-04 03:30 23.06069 -154.56061 35119 ft 467 kts 54°
2026-05-04 03:30 23.09661 -154.50180 35122 ft 467 kts 54°
2026-05-04 03:31 23.13252 -154.44294 35116 ft 468 kts 54°
2026-05-04 03:31 23.16834 -154.38394 35117 ft 468 kts 54°
2026-05-04 03:32 23.20415 -154.32490 35118 ft 468 kts 54°
2026-05-04 03:32 23.23999 -154.26584 35117 ft 468 kts 54°
2026-05-04 03:33 23.26977 -154.21670 35117 ft 468 kts 54°
2026-05-04 03:33 23.30558 -154.15755 35118 ft 468 kts 54°
2026-05-04 03:34 23.34139 -154.09837 35120 ft 468 kts 54°
2026-05-04 03:34 23.37723 -154.03915 35128 ft 468 kts 54°
2026-05-04 03:35 23.41293 -153.97980 35117 ft 469 kts 54°
2026-05-04 03:35 23.44867 -153.92041 35119 ft 469 kts 54°
2026-05-04 03:36 23.48437 -153.86090 35123 ft 469 kts 54°
2026-05-04 03:36 23.52019 -153.80145 35124 ft 469 kts 54°
2026-05-04 03:37 23.55578 -153.74235 35132 ft 470 kts 54°
2026-05-04 03:37 23.59155 -153.68272 35141 ft 470 kts 54°
2026-05-04 03:38 23.62731 -153.62302 35137 ft 470 kts 55°
2026-05-04 03:38 23.66300 -153.56321 35135 ft 470 kts 55°
2026-05-04 03:39 23.69867 -153.50338 35132 ft 470 kts 55°
2026-05-04 03:39 23.73438 -153.44358 35132 ft 470 kts 55°
2026-05-04 03:40 23.77009 -153.38379 35128 ft 470 kts 55°
2026-05-04 03:40 23.80589 -153.32393 35139 ft 471 kts 54°
2026-05-04 03:41 23.84171 -153.26407 35140 ft 471 kts 54°
2026-05-04 03:41 23.87755 -153.20420 35138 ft 471 kts 55°
2026-05-04 03:42 23.91331 -153.14423 35137 ft 471 kts 55°
2026-05-04 03:42 23.94909 -153.08426 35134 ft 471 kts 55°
2026-05-04 03:43 23.98488 -153.02419 35138 ft 471 kts 55°
2026-05-04 03:43 24.02054 -152.96401 35146 ft 472 kts 55°
2026-05-04 03:44 24.05627 -152.90386 35148 ft 471 kts 55°
2026-05-04 03:44 24.09183 -152.84414 35147 ft 471 kts 55°
2026-05-04 03:45 24.12755 -152.78398 35146 ft 471 kts 55°
2026-05-04 03:45 24.16321 -152.72368 35144 ft 472 kts 55°
2026-05-04 03:46 24.19879 -152.66334 35143 ft 472 kts 55°
2026-05-04 03:46 24.23444 -152.60296 35148 ft 472 kts 55°
2026-05-04 03:47 24.27006 -152.54259 35150 ft 472 kts 55°
2026-05-04 03:47 24.30569 -152.48215 35150 ft 472 kts 55°
2026-05-04 03:48 24.34126 -152.42171 35148 ft 472 kts 55°
2026-05-04 03:48 24.37681 -152.36120 35147 ft 472 kts 55°
2026-05-04 03:49 24.41234 -152.30064 35148 ft 472 kts 55°
2026-05-04 03:49 24.44785 -152.24010 35153 ft 472 kts 55°
2026-05-04 03:50 24.48333 -152.17946 35160 ft 472 kts 55°
2026-05-04 03:50 24.51882 -152.11886 35159 ft 472 kts 55°
2026-05-04 03:51 24.55401 -152.05859 35155 ft 472 kts 55°
2026-05-04 03:51 24.58937 -151.99785 35155 ft 472 kts 55°
2026-05-04 03:52 24.62472 -151.93715 35155 ft 472 kts 55°
2026-05-04 03:52 24.66007 -151.87637 35162 ft 472 kts 55°
2026-05-04 03:53 24.69547 -151.81558 35163 ft 472 kts 55°
2026-05-04 03:53 24.73074 -151.75471 35162 ft 472 kts 55°
2026-05-04 03:54 24.76602 -151.69383 35160 ft 472 kts 55°
2026-05-04 03:54 24.80129 -151.63293 35162 ft 472 kts 55°
2026-05-04 03:55 24.83658 -151.57200 35159 ft 472 kts 55°
2026-05-04 03:55 24.87184 -151.51104 35162 ft 472 kts 55°
2026-05-04 03:56 24.90700 -151.44994 35159 ft 472 kts 55°
2026-05-04 03:56 24.94214 -151.38880 35160 ft 473 kts 55°
2026-05-04 03:57 24.97736 -151.32765 35162 ft 473 kts 55°
2026-05-04 03:57 25.01253 -151.26645 35165 ft 472 kts 55°
2026-05-04 03:58 25.06522 -151.17461 35175 ft 472 kts 55°
2026-05-04 03:58 25.10009 -151.11372 35169 ft 473 kts 55°
2026-05-04 03:59 25.13511 -151.05229 35163 ft 473 kts 55°
2026-05-04 03:59 25.17020 -150.99088 35169 ft 473 kts 55°
2026-05-04 04:00 25.20528 -150.92947 35166 ft 473 kts 55°
2026-05-04 04:00 25.24028 -150.86800 35170 ft 473 kts 55°
2026-05-04 04:01 25.27529 -150.80649 35176 ft 473 kts 55°
2026-05-04 04:01 25.31028 -150.74498 35178 ft 473 kts 55°
2026-05-04 04:02 25.34522 -150.68339 35173 ft 473 kts 55°
2026-05-04 04:02 25.38009 -150.62174 35173 ft 473 kts 55°
2026-05-04 04:03 25.41499 -150.56009 35175 ft 473 kts 55°
2026-05-04 04:03 25.44990 -150.49835 35187 ft 473 kts 55°
2026-05-04 04:04 25.48483 -150.43665 35183 ft 473 kts 55°
2026-05-04 04:04 25.51938 -150.37521 35183 ft 473 kts 56°
2026-05-04 04:05 25.55410 -150.31331 35180 ft 473 kts 56°
2026-05-04 04:05 25.58895 -150.25148 35182 ft 473 kts 55°
2026-05-04 04:06 25.62377 -150.18965 35182 ft 473 kts 56°
2026-05-04 04:06 25.65849 -150.12769 35191 ft 473 kts 56°
2026-05-04 04:07 25.69316 -150.06564 35188 ft 473 kts 56°
2026-05-04 04:07 25.72786 -150.00359 35186 ft 473 kts 56°
2026-05-04 04:08 25.76250 -149.94153 35187 ft 473 kts 56°
2026-05-04 04:08 25.79713 -149.87940 35187 ft 473 kts 56°
2026-05-04 04:09 25.83168 -149.81727 35198 ft 473 kts 56°
2026-05-04 04:09 25.86620 -149.75515 35193 ft 473 kts 56°
2026-05-04 04:10 25.90076 -149.69302 35190 ft 473 kts 56°
2026-05-04 04:10 25.93533 -149.63084 35188 ft 473 kts 56°
2026-05-04 04:11 25.96981 -149.56859 35196 ft 473 kts 56°
2026-05-04 04:11 26.00420 -149.50637 35198 ft 472 kts 56°
2026-05-04 04:12 26.03829 -149.44456 35200 ft 472 kts 56°
2026-05-04 04:12 26.07273 -149.38236 35193 ft 472 kts 56°
2026-05-04 04:13 26.10703 -149.32002 35190 ft 473 kts 56°
2026-05-04 04:13 26.14127 -149.25767 35195 ft 472 kts 56°
2026-05-04 04:14 26.17557 -149.19533 35196 ft 472 kts 56°
2026-05-04 04:14 26.20981 -149.13304 35202 ft 472 kts 56°
2026-05-04 04:15 26.24398 -149.07066 35192 ft 472 kts 56°
2026-05-04 04:15 26.27818 -149.00815 35199 ft 472 kts 56°
2026-05-04 04:16 26.31227 -148.94564 35200 ft 472 kts 56°
2026-05-04 04:16 26.34630 -148.88315 35200 ft 471 kts 56°
2026-05-04 04:17 26.38040 -148.82074 35203 ft 471 kts 56°
2026-05-04 04:17 26.41445 -148.75824 35200 ft 471 kts 56°
2026-05-04 04:18 26.44843 -148.69565 35199 ft 472 kts 56°
2026-05-04 04:18 26.48243 -148.63300 35189 ft 472 kts 56°
2026-05-04 04:19 26.51649 -148.57029 35199 ft 472 kts 56°
2026-05-04 04:19 26.55047 -148.50753 35185 ft 472 kts 56°
2026-05-04 04:20 26.58436 -148.44472 35209 ft 472 kts 56°
2026-05-04 04:20 26.61825 -148.38185 35212 ft 472 kts 56°
2026-05-04 04:21 26.65193 -148.31942 35210 ft 472 kts 56°
2026-05-04 04:21 26.68572 -148.25646 35209 ft 472 kts 56°
2026-05-04 04:22 26.71957 -148.19351 35212 ft 472 kts 56°
2026-05-04 04:22 26.75338 -148.13057 35214 ft 472 kts 56°
2026-05-04 04:23 26.78710 -148.06761 35217 ft 472 kts 56°
2026-05-04 04:23 26.82085 -148.00462 35201 ft 472 kts 56°
2026-05-04 04:24 26.85453 -147.94152 35209 ft 472 kts 56°
2026-05-04 04:24 26.88269 -147.88861 35213 ft 472 kts 56°
2026-05-04 04:25 26.91608 -147.82595 35216 ft 471 kts 56°
2026-05-04 04:25 26.94972 -147.76295 35224 ft 471 kts 56°
2026-05-04 04:26 26.98320 -147.69987 35219 ft 471 kts 56°
2026-05-04 04:26 27.01661 -147.63683 35215 ft 470 kts 56°
2026-05-04 04:27 27.05002 -147.57383 35221 ft 469 kts 56°
2026-05-04 04:27 27.08333 -147.51086 35213 ft 469 kts 56°
2026-05-04 04:28 27.11659 -147.44785 35216 ft 469 kts 56°
2026-05-04 04:28 27.14980 -147.38489 35217 ft 469 kts 56°
2026-05-04 04:29 27.18297 -147.32191 35218 ft 468 kts 56°
2026-05-04 04:29 27.21590 -147.25940 35225 ft 468 kts 56°
2026-05-04 04:30 27.24838 -147.19542 35211 ft 469 kts 59°
2026-05-04 04:30 27.27704 -147.13005 35225 ft 470 kts 62°
2026-05-04 04:31 27.30456 -147.06334 35224 ft 470 kts 62°
2026-05-04 04:31 27.33246 -146.99695 35221 ft 469 kts 61°
2026-05-04 04:32 27.36091 -146.93089 35216 ft 469 kts 60°
2026-05-04 04:32 27.38941 -146.86490 35221 ft 469 kts 60°
2026-05-04 04:33 27.41782 -146.79883 35218 ft 469 kts 61°
2026-05-04 04:33 27.44610 -146.73267 35221 ft 469 kts 61°
2026-05-04 04:34 27.47437 -146.66648 35212 ft 469 kts 61°
2026-05-04 04:34 27.50257 -146.60025 35218 ft 469 kts 61°
2026-05-04 04:35 27.53079 -146.53403 35225 ft 469 kts 61°
2026-05-04 04:35 27.55901 -146.46775 35223 ft 469 kts 61°
2026-05-04 04:36 27.58712 -146.40141 35227 ft 469 kts 61°
2026-05-04 04:36 27.61524 -146.33502 35225 ft 469 kts 61°
2026-05-04 04:37 27.67111 -146.20269 35215 ft 469 kts 61°
2026-05-04 04:38 27.69915 -146.13630 35215 ft 469 kts 61°
2026-05-04 04:38 27.72706 -146.06984 35222 ft 469 kts 62°
2026-05-04 04:39 27.75493 -146.00333 35226 ft 469 kts 62°
2026-05-04 04:39 27.78282 -145.93684 35223 ft 468 kts 62°
2026-05-04 04:40 27.81066 -145.87035 35225 ft 468 kts 62°
2026-05-04 04:40 27.83844 -145.80378 35227 ft 468 kts 62°
2026-05-04 04:41 27.86627 -145.73724 35226 ft 468 kts 62°
2026-05-04 04:41 27.89399 -145.67066 35234 ft 468 kts 62°
2026-05-04 04:42 27.92165 -145.60411 35235 ft 468 kts 62°
2026-05-04 04:42 27.94919 -145.53800 35231 ft 468 kts 62°
2026-05-04 04:43 27.97679 -145.47142 35229 ft 467 kts 62°
2026-05-04 04:43 28.00433 -145.40484 35231 ft 467 kts 62°
2026-05-04 04:44 28.03178 -145.33825 35237 ft 467 kts 62°
2026-05-04 04:44 28.05919 -145.27161 35237 ft 467 kts 62°
2026-05-04 04:45 28.08664 -145.20505 35238 ft 466 kts 62°
2026-05-04 04:47 28.18217 -144.97212 35240 ft 465 kts 62°
2026-05-04 04:47 28.20948 -144.90561 35238 ft 465 kts 62°
2026-05-04 04:48 28.23664 -144.83910 35241 ft 465 kts 62°
2026-05-04 04:49 28.30406 -144.67309 35249 ft 464 kts 62°
2026-05-04 04:49 28.33105 -144.60657 35249 ft 464 kts 62°
2026-05-04 04:50 28.35806 -144.53998 35243 ft 464 kts 62°
2026-05-04 04:50 28.38498 -144.47340 35242 ft 464 kts 62°
2026-05-04 04:51 28.41183 -144.40678 35242 ft 464 kts 62°
2026-05-04 04:51 28.43863 -144.34018 35240 ft 463 kts 62°
2026-05-04 04:52 28.46533 -144.27352 35247 ft 463 kts 62°
2026-05-04 04:52 28.49205 -144.20688 35244 ft 463 kts 62°
2026-05-04 04:53 28.51878 -144.14031 35251 ft 463 kts 62°
2026-05-04 04:53 28.54549 -144.07371 35245 ft 463 kts 62°
2026-05-04 04:54 28.57203 -144.00710 35240 ft 462 kts 62°
2026-05-04 04:54 28.59855 -143.94043 35240 ft 462 kts 62°
2026-05-04 04:55 28.62504 -143.87383 35239 ft 462 kts 62°
2026-05-04 04:55 28.65160 -143.80725 35240 ft 462 kts 62°
2026-05-04 04:56 28.67788 -143.74107 35249 ft 462 kts 62°
2026-05-04 04:56 28.70423 -143.67439 35247 ft 462 kts 62°
2026-05-04 04:57 28.73050 -143.60770 35255 ft 461 kts 62°
2026-05-04 04:57 28.75680 -143.54102 35253 ft 461 kts 62°
2026-05-04 04:58 28.78312 -143.47443 35247 ft 461 kts 62°
2026-05-04 04:58 28.80936 -143.40775 35246 ft 461 kts 62°
2026-05-04 04:59 28.83553 -143.34104 35244 ft 461 kts 63°
2026-05-04 04:59 28.86165 -143.27427 35249 ft 461 kts 63°
2026-05-04 05:00 28.88772 -143.20754 35256 ft 461 kts 63°
2026-05-04 05:01 28.92674 -143.10740 35254 ft 460 kts 63°
2026-05-04 05:01 28.95275 -143.04061 35252 ft 460 kts 63°
2026-05-04 05:02 28.97872 -142.97389 35260 ft 460 kts 63°
2026-05-04 05:02 29.00444 -142.90757 35254 ft 459 kts 63°
2026-05-04 05:03 29.03031 -142.84085 35256 ft 459 kts 63°
2026-05-04 05:04 29.08181 -142.70735 35255 ft 459 kts 63°
2026-05-04 05:04 29.10748 -142.64052 35258 ft 459 kts 63°
2026-05-04 05:06 29.21000 -142.37344 35255 ft 458 kts 63°
2026-05-04 05:07 29.23552 -142.30661 35255 ft 458 kts 63°
2026-05-04 05:07 29.26096 -142.23971 35264 ft 458 kts 63°
2026-05-04 05:09 29.37503 -141.93871 35256 ft 457 kts 63°
2026-05-04 05:10 29.40034 -141.87179 35254 ft 457 kts 63°
2026-05-04 05:10 29.42562 -141.80488 35263 ft 457 kts 63°
2026-05-04 05:11 29.45076 -141.73792 35260 ft 457 kts 63°
2026-05-04 05:11 29.47571 -141.67137 35261 ft 457 kts 63°
2026-05-04 05:12 29.50075 -141.60433 35254 ft 457 kts 63°
2026-05-04 05:12 29.52580 -141.53736 35261 ft 457 kts 63°
2026-05-04 05:13 29.55086 -141.47036 35258 ft 456 kts 63°
2026-05-04 05:13 29.57579 -141.40336 35255 ft 456 kts 63°
2026-05-04 05:14 29.60069 -141.33630 35265 ft 456 kts 63°
2026-05-04 05:14 29.62561 -141.26931 35265 ft 456 kts 63°
2026-05-04 05:15 29.65044 -141.20229 35263 ft 456 kts 63°
2026-05-04 05:15 29.67520 -141.13527 35258 ft 455 kts 63°
2026-05-04 05:16 29.69991 -141.06821 35253 ft 455 kts 63°
2026-05-04 05:16 29.72048 -141.01245 35255 ft 455 kts 63°
2026-05-04 05:17 29.74518 -140.94535 35252 ft 456 kts 63°
2026-05-04 05:17 29.76981 -140.87817 35249 ft 456 kts 63°
2026-05-04 05:18 29.79443 -140.81098 35256 ft 455 kts 63°
2026-05-04 05:18 29.81905 -140.74385 35256 ft 455 kts 63°
2026-05-04 05:19 29.84357 -140.67662 35252 ft 455 kts 63°
2026-05-04 05:19 29.86805 -140.60940 35265 ft 455 kts 63°
2026-05-04 05:20 29.89244 -140.54224 35261 ft 454 kts 63°
2026-05-04 05:20 29.91681 -140.47507 35258 ft 454 kts 63°
2026-05-04 05:21 29.94117 -140.40799 35269 ft 453 kts 63°
2026-05-04 05:21 29.96487 -140.34061 35269 ft 454 kts 65°
2026-05-04 05:22 29.98707 -140.27244 35255 ft 454 kts 66°
2026-05-04 05:22 30.00892 -140.20406 35261 ft 454 kts 66°
2026-05-04 05:23 30.03111 -140.13590 35272 ft 454 kts 65°
2026-05-04 05:23 30.05349 -140.06787 35265 ft 453 kts 65°
2026-05-04 05:24 30.07576 -139.99991 35256 ft 453 kts 65°
2026-05-04 05:24 30.09772 -139.93234 35265 ft 452 kts 65°
2026-05-04 05:25 30.11976 -139.86434 35264 ft 452 kts 65°
2026-05-04 05:25 30.14183 -139.79643 35260 ft 451 kts 65°
2026-05-04 05:26 30.16388 -139.72850 35269 ft 451 kts 65°
2026-05-04 05:26 30.18582 -139.66055 35267 ft 451 kts 65°
2026-05-04 05:28 30.27301 -139.38887 35264 ft 450 kts 65°
2026-05-04 05:29 30.29469 -139.32085 35259 ft 450 kts 65°
2026-05-04 05:29 30.31637 -139.25287 35272 ft 450 kts 65°
2026-05-04 05:31 30.40256 -138.98120 35266 ft 449 kts 65°
2026-05-04 05:32 30.42392 -138.91378 35260 ft 449 kts 65°
2026-05-04 05:33 30.45601 -138.81193 35251 ft 449 kts 65°
2026-05-04 05:33 30.47738 -138.74398 35248 ft 449 kts 65°
2026-05-04 05:34 30.49868 -138.67589 35250 ft 449 kts 65°
2026-05-04 05:34 30.51998 -138.60779 35263 ft 449 kts 65°
2026-05-04 05:35 30.54123 -138.53965 35260 ft 449 kts 65°
2026-05-04 05:35 30.56239 -138.47142 35258 ft 449 kts 65°
2026-05-04 05:36 30.58359 -138.40319 35271 ft 450 kts 65°
2026-05-04 05:36 30.60482 -138.33494 35266 ft 449 kts 65°
2026-05-04 05:37 30.62605 -138.26667 35261 ft 449 kts 65°
2026-05-04 05:37 30.64713 -138.19836 35267 ft 450 kts 65°
2026-05-04 05:38 30.67865 -138.09580 35262 ft 449 kts 65°
2026-05-04 05:38 30.69963 -138.02739 35259 ft 449 kts 65°
2026-05-04 05:39 30.73112 -137.92476 35256 ft 449 kts 65°
2026-05-04 05:40 30.76249 -137.82205 35248 ft 450 kts 65°
2026-05-04 05:40 30.78338 -137.75344 35255 ft 450 kts 65°
2026-05-04 05:41 30.80421 -137.68477 35260 ft 450 kts 65°
2026-05-04 05:41 30.82503 -137.61604 35259 ft 450 kts 65°
2026-05-04 05:42 30.84567 -137.54774 35263 ft 451 kts 65°
2026-05-04 05:42 30.86647 -137.47895 35258 ft 451 kts 65°
2026-05-04 05:43 30.88720 -137.41017 35258 ft 450 kts 65°
2026-05-04 05:45 30.96979 -137.13432 35252 ft 451 kts 65°
2026-05-04 05:47 31.05194 -136.85764 35238 ft 452 kts 65°
2026-05-04 05:47 31.07238 -136.78828 35238 ft 452 kts 65°
2026-05-04 05:48 31.09282 -136.71890 35232 ft 453 kts 65°
2026-05-04 05:48 31.11309 -136.64987 35232 ft 453 kts 65°
2026-05-04 05:49 31.13355 -136.58032 35232 ft 453 kts 65°
2026-05-04 05:49 31.15390 -136.51062 35233 ft 454 kts 65°
2026-05-04 05:51 31.23535 -136.23089 35230 ft 456 kts 65°
2026-05-04 05:52 31.25566 -136.16069 35235 ft 456 kts 65°
2026-05-04 05:52 31.27594 -136.09034 35228 ft 457 kts 65°
2026-05-04 05:54 31.35689 -135.80826 35224 ft 458 kts 65°
2026-05-04 05:55 31.37692 -135.73799 35223 ft 459 kts 65°
2026-05-04 05:55 31.39717 -135.66717 35215 ft 459 kts 65°
2026-05-04 05:56 31.41732 -135.59627 35227 ft 459 kts 65°
2026-05-04 05:56 31.43730 -135.52519 35226 ft 460 kts 65°
2026-05-04 05:57 31.45731 -135.45411 35221 ft 460 kts 65°
2026-05-04 05:57 31.47743 -135.38304 35241 ft 460 kts 64°
2026-05-04 05:58 31.49748 -135.31189 35231 ft 460 kts 65°
2026-05-04 05:58 31.51750 -135.24062 35226 ft 460 kts 65°
2026-05-04 05:59 31.53749 -135.16929 35230 ft 461 kts 65°
2026-05-04 05:59 31.55740 -135.09786 35241 ft 461 kts 64°
2026-05-04 06:00 31.57730 -135.02627 35235 ft 462 kts 64°
2026-05-04 06:00 31.59718 -134.95463 35228 ft 462 kts 64°
2026-05-04 06:01 31.61709 -134.88292 35224 ft 462 kts 65°
2026-05-04 06:03 31.69605 -134.59599 35227 ft 463 kts 64°
2026-05-04 06:05 31.78473 -134.27098 35196 ft 466 kts 65°
2026-05-04 06:06 31.80440 -134.19834 35221 ft 467 kts 65°
2026-05-04 06:06 31.82403 -134.12551 35199 ft 468 kts 65°
2026-05-04 06:07 31.84033 -134.06484 35189 ft 469 kts 65°
2026-05-04 06:07 31.84593 -134.04397 35189 ft 469 kts 65°